Juneau, AK

9:56 AM AKDT on October 23, 2017 (GMT -0800)
Juneau International

Weather History for PAJN - October, 2013

Change the Weather History Date:

Wednesday, October 23, 2013

  Actual Average Record
Temperature  
Mean Temperature 47 °F 40 °F  
Max Temperature 53 °F 45 °F 60 °F (1942)
Min Temperature 40 °F 36 °F 20 °F (2004)
Degree Days  
Heating Degree Days 18 25  
Month to date heating degree days 454 488  
Since 1 July heating degree days 1276 1472  
Cooling Degree Days 0 0  
Month to date cooling degree days 0 0  
Year to date cooling degree days 9 2  
Moisture  
Dew Point 43 °F    
Average Humidity 95    
Maximum Humidity 100    
Minimum Humidity 89    
Precipitation  
Precipitation 0.49 in 0.25 in 1.92 in (2008)
Month to date precipitation 8.05 6.68  
Year to date precipitation 56.49 48.49  
Snow  
Snow 0.00 in 0.00 in T in (2008)
Month to date snowfall T 0.1  
Since 1 July snowfall T 0.1  
Since 1 September snowfall T 0.1  
Snow Depth -    
Sea Level Pressure  
Sea Level Pressure 29.87 in    
Wind  
Wind Speed 1 mph (SE)    
Max Wind Speed 32 mph    
Max Gust Speed 41 mph    
Visibility 7 miles    
Events Rain    
T = Trace of Precipitation, MM = Missing Value Source: NWS Daily Summary

Daily Weather History Graph

Daily Weather History Graph

Search for Another Location

Airport or City:

Trip Planner

Search our weather history database for the weather conditions in past years. The results will help you decide how hot, cold, wet, or windy it might be!

Date:

Astronomy

Oct. 23, 2013 Rise Set
Actual Time 7:53 AM AKDT 5:30 PM AKDT
Civil Twilight 7:12 AM AKDT 6:11 PM AKDT
Nautical Twilight 6:26 AM AKDT 6:57 PM AKDT
Astronomical Twilight 5:40 AM AKDT 7:43 PM AKDT
Moon 8:32 PM AKDT 12:52 PM AKDT
Length of Visible Light 10h 59m
Length of Day
9h 36m
Waning Gibbous, 78% of the Moon is Illuminated
Oct 23
Waning Gibbous
Oct 26
Last Quarter
Nov 3
New
Nov 9
First Quarter
Nov 17
Full

Hourly Weather History & Observations

Time (AKDT) Temp. Windchill Dew Point Humidity Pressure Visibility Wind Dir Wind Speed Gust Speed Precip Events Conditions
12:53 AM 41.0 °F 39.0 °F 39.9 °F 96% 30.04 in 5.0 mi West 3.5 mph - 0.04 in Rain Light Rain
1:53 AM 41.0 °F - 39.9 °F 96% 30.03 in 5.0 mi Calm Calm - 0.07 in Rain Rain
2:53 AM 39.9 °F - 39.0 °F 97% 30.02 in 6.0 mi Calm Calm - 0.07 in Rain Light Rain
3:53 AM 39.9 °F - 39.9 °F 100% 30.00 in 4.0 mi Calm Calm - 0.07 in Rain Rain
4:53 AM 39.9 °F - 39.9 °F 100% 29.97 in 5.0 mi Calm Calm - 0.10 in Rain Rain
5:53 AM 39.9 °F - 39.9 °F 100% 29.96 in 5.0 mi Calm Calm - 0.10 in Rain Rain
6:53 AM 39.9 °F - 39.9 °F 100% 29.93 in 7.0 mi Calm Calm - 0.07 in Rain Light Rain
7:27 AM 39.9 °F 37.8 °F 39.9 °F 100% 29.92 in 7.0 mi SW 3.5 mph - 0.01 in Rain Light Rain
7:53 AM 39.9 °F 37.8 °F 39.9 °F 100% 29.92 in 10.0 mi WNW 3.5 mph - 0.01 in   Overcast
7:57 AM 39.9 °F 37.8 °F 39.9 °F 100% 29.92 in 10.0 mi WNW 3.5 mph - 0.00 in Rain Light Rain
8:53 AM 39.9 °F - 39.9 °F 100% 29.88 in 9.0 mi Calm Calm - 0.01 in Rain Light Rain
9:18 AM 39.9 °F 35.1 °F 39.0 °F 97% 29.89 in 9.0 mi NW 6.9 mph - 0.00 in Rain Light Rain
9:22 AM 39.9 °F 35.1 °F 39.0 °F 97% 29.90 in 8.0 mi WNW 6.9 mph - 0.00 in Rain Light Rain
9:53 AM 41.0 °F 36.4 °F 39.9 °F 96% 29.89 in 6.0 mi West 6.9 mph - 0.00 in Rain Light Rain
10:41 AM 41.0 °F - 39.9 °F 96% 29.88 in 5.0 mi Calm Calm - 0.00 in Rain Light Rain
10:53 AM 41.0 °F - 39.9 °F 96% 29.88 in 8.0 mi Calm Calm - 0.00 in Rain Light Rain
11:08 AM 41.0 °F - 39.9 °F 96% 29.87 in 7.0 mi Calm Calm - 0.00 in Rain Light Rain
11:53 AM 42.1 °F - 39.9 °F 92% 29.85 in 10.0 mi Calm Calm - 0.00 in Rain Light Rain
11:59 AM 42.1 °F 40.2 °F 39.9 °F 92% 29.84 in 10.0 mi SSE 3.5 mph - 0.00 in Rain Light Rain
12:53 PM 46.9 °F - 45.0 °F 93% 29.81 in 10.0 mi East 16.1 mph 23.0 mph 0.00 in   Overcast
1:53 PM 50.0 °F - 46.9 °F 89% 29.76 in 10.0 mi East 23.0 mph 32.2 mph 0.00 in Rain Light Rain
2:53 PM 50.0 °F - 46.9 °F 89% 29.73 in 10.0 mi ESE 24.2 mph 35.7 mph 0.00 in   Overcast
3:53 PM 53.1 °F - 48.0 °F 83% 29.73 in 8.0 mi ESE 25.3 mph 34.5 mph 0.00 in Rain Light Rain
4:53 PM 51.1 °F - 48.9 °F 92% 29.79 in 3.0 mi Calm Calm - 0.13 in Rain Heavy Rain
5:20 PM 51.1 °F - 48.0 °F 89% 29.72 in 5.0 mi ESE 26.5 mph 34.5 mph 0.10 in Rain Rain
5:53 PM 51.1 °F - 48.0 °F 89% 29.76 in 10.0 mi ESE 21.9 mph 26.5 mph 0.14 in   Overcast
6:53 PM 50.0 °F - 46.9 °F 89% 29.78 in 8.0 mi ESE 19.6 mph 25.3 mph 0.01 in Rain Light Rain
7:53 PM 50.0 °F - 46.9 °F 89% 29.77 in 10.0 mi ESE 20.7 mph 28.8 mph 0.00 in   Mostly Cloudy
8:53 PM 50.0 °F - 46.9 °F 89% 29.81 in 9.0 mi SE 21.9 mph 31.1 mph 0.00 in Rain Light Rain
9:53 PM 50.0 °F - 46.9 °F 89% 29.84 in 7.0 mi ESE 19.6 mph 25.3 mph 0.02 in Rain Light Rain
10:53 PM 50.0 °F - 46.9 °F 89% 29.89 in 4.0 mi SE 8.1 mph - 0.02 in Rain Light Rain
11:53 PM 50.0 °F - 46.9 °F 89% 29.91 in 10.0 mi East 8.1 mph - 0.02 in Rain Light Rain